Time,TemperatureF,DewpointF,PressureIn,WindDirection,WindDirectionDegrees,WindSpeedMPH,WindSpeedGustMPH,Humidity,HourlyPrecipIn,Conditions,Clouds,dailyrainin,SoftwareType,DateUTC
2013-07-17 00:22:00,57.0,30.0,-100.00,SE,126,3.0,4.0,36,-99.99,,,-99.99,,2013-07-17 07:22:00,
2013-07-17 00:32:00,57.0,29.0,-100.00,ESE,118,2.0,3.0,34,-99.99,,,-99.99,,2013-07-17 07:32:00,
2013-07-17 00:42:00,56.0,27.0,-100.00,East,97,1.0,1.0,33,-99.99,,,-99.99,,2013-07-17 07:42:00,
2013-07-17 00:52:00,56.0,27.0,-100.00,East,97,1.0,1.0,33,-99.99,,,-99.99,,2013-07-17 07:52:00,
2013-07-17 01:01:00,56.0,27.0,-100.00,East,97,1.0,1.0,33,-99.99,,,-99.99,,2013-07-17 08:01:00,
2013-07-17 01:21:00,55.0,27.0,-100.00,SE,129,3.0,3.0,34,-99.99,,,-99.99,,2013-07-17 08:21:00,
2013-07-17 01:32:00,55.0,26.0,-100.00,ESE,112,3.0,4.0,33,-99.99,,,-99.99,,2013-07-17 08:32:00,
2013-07-17 01:42:00,55.0,26.0,-100.00,SE,124,2.0,2.0,32,-99.99,,,-99.99,,2013-07-17 08:42:00,
2013-07-17 01:52:00,54.0,26.0,-100.00,ESE,121,1.0,1.0,33,-99.99,,,-99.99,,2013-07-17 08:52:00,
2013-07-17 03:22:00,52.0,22.0,-100.00,East,90,1.0,2.0,31,-99.99,,,-99.99,,2013-07-17 10:22:00,
2013-07-17 04:01:00,51.0,22.0,-100.00,SE,134,1.0,3.0,32,-99.99,,,-99.99,,2013-07-17 11:01:00,
2013-07-17 05:11:00,49.0,20.0,-100.00,ESE,110,1.0,3.0,32,-99.99,,,-99.99,,2013-07-17 12:11:00,
2013-07-17 07:22:00,52.0,18.0,-100.00,East,92,0.0,1.0,26,-99.99,,,-99.99,,2013-07-17 14:22:00,
2013-07-17 07:32:00,52.0,18.0,-100.00,East,92,0.0,1.0,26,-99.99,,,-99.99,,2013-07-17 14:32:00,
2013-07-17 07:43:00,56.0,23.0,-100.00,NNE,33,1.0,2.0,28,-99.99,,,-99.99,,2013-07-17 14:43:00,
2013-07-17 07:52:00,56.0,23.0,-100.00,NNE,33,1.0,2.0,28,-99.99,,,-99.99,,2013-07-17 14:52:00,
2013-07-17 08:01:00,61.0,25.0,-100.00,West,265,0.0,1.0,25,-99.99,,,-99.99,,2013-07-17 15:01:00,
2013-07-17 08:12:00,63.0,22.0,-100.00,West,259,1.0,1.0,21,-99.99,,,-99.99,,2013-07-17 15:12:00,
2013-07-17 08:21:00,65.0,23.0,-100.00,WNW,303,1.0,2.0,20,-99.99,,,-99.99,,2013-07-17 15:21:00,
2013-07-17 08:32:00,67.0,25.0,-100.00,WNW,288,1.0,2.0,20,-99.99,,,-99.99,,2013-07-17 15:32:00,
2013-07-17 08:52:00,72.0,22.0,-100.00,West,266,1.0,2.0,15,-99.99,,,-99.99,,2013-07-17 15:52:00,
2013-07-17 09:01:00,72.0,22.0,-100.00,West,266,1.0,2.0,15,-99.99,,,-99.99,,2013-07-17 16:01:00,
2013-07-17 09:11:00,72.0,22.0,-100.00,West,266,1.0,2.0,15,-99.99,,,-99.99,,2013-07-17 16:11:00,
2013-07-17 09:33:00,80.0,13.0,-100.00,NW,310,1.0,3.0,8,-99.99,,,-99.99,,2013-07-17 16:33:00,
2013-07-17 09:42:00,83.0,5.0,-100.00,WSW,251,2.0,5.0,5,-99.99,,,-99.99,,2013-07-17 16:42:00,
2013-07-17 10:11:00,83.0,5.0,-100.00,West,271,3.0,6.0,5,-99.99,,,-99.99,,2013-07-17 17:11:00,
2013-07-17 10:32:00,84.0,6.0,-100.00,WSW,257,5.0,9.0,5,-99.99,,,-99.99,,2013-07-17 17:32:00,
2013-07-17 11:11:00,85.0,2.0,-100.00,West,262,6.0,10.0,4,-99.99,,,-99.99,,2013-07-17 18:11:00,
2013-07-17 11:22:00,87.0,3.0,-100.00,WNW,288,4.0,8.0,4,-99.99,,,-99.99,,2013-07-17 18:22:00,
2013-07-17 11:32:00,87.0,3.0,-100.00,WNW,288,4.0,8.0,4,-99.99,,,-99.99,,2013-07-17 18:32:00,
2013-07-17 11:43:00,87.0,3.0,-100.00,WNW,298,4.0,8.0,4,-99.99,,,-99.99,,2013-07-17 18:43:00,
2013-07-17 11:52:00,88.0,4.0,-100.00,WNW,299,4.0,9.0,4,-99.99,,,-99.99,,2013-07-17 18:52:00,
2013-07-17 12:01:00,88.0,4.0,-100.00,West,280,5.0,9.0,4,-99.99,,,-99.99,,2013-07-17 19:01:00,
2013-07-17 12:11:00,88.0,4.0,-100.00,West,273,6.0,11.0,4,-99.99,,,-99.99,,2013-07-17 19:11:00,
2013-07-17 12:22:00,89.0,9.0,-100.00,West,271,7.0,13.0,5,-99.99,,,-99.99,,2013-07-17 19:22:00,
2013-07-17 12:32:00,89.0,9.0,-100.00,West,271,7.0,13.0,5,-99.99,,,-99.99,,2013-07-17 19:32:00,
2013-07-17 12:43:00,89.0,9.0,-100.00,West,269,8.0,14.0,5,-99.99,,,-99.99,,2013-07-17 19:43:00,
2013-07-17 13:11:00,89.0,13.0,-100.00,WSW,252,9.0,15.0,6,-99.99,,,-99.99,,2013-07-17 20:11:00,
2013-07-17 13:22:00,90.0,14.0,-100.00,West,262,8.0,13.0,6,-99.99,,,-99.99,,2013-07-17 20:22:00,
2013-07-17 13:43:00,89.0,17.0,-100.00,West,260,8.0,14.0,7,-99.99,,,-99.99,,2013-07-17 20:43:00,
2013-07-17 13:52:00,89.0,20.0,-100.00,WSW,243,7.0,13.0,8,-99.99,,,-99.99,,2013-07-17 20:52:00,
2013-07-17 14:11:00,90.0,24.0,-100.00,West,260,8.0,15.0,9,-99.99,,,-99.99,,2013-07-17 21:11:00,
2013-07-17 14:42:00,91.0,24.0,-100.00,WSW,256,8.0,14.0,9,-99.99,,,-99.99,,2013-07-17 21:42:00,
2013-07-17 14:52:00,91.0,24.0,-100.00,WSW,256,8.0,14.0,9,-99.99,,,-99.99,,2013-07-17 21:52:00,
2013-07-17 15:11:00,90.0,28.0,-100.00,WSW,256,9.0,15.0,11,-99.99,,,-99.99,,2013-07-17 22:11:00,
2013-07-17 15:21:00,90.0,31.0,-100.00,WSW,256,10.0,16.0,12,-99.99,,,-99.99,,2013-07-17 22:21:00,
2013-07-17 15:32:00,90.0,33.0,-100.00,West,263,10.0,14.0,13,-99.99,,,-99.99,,2013-07-17 22:32:00,
2013-07-17 15:43:00,89.0,34.0,-100.00,WSW,251,10.0,15.0,14,-99.99,,,-99.99,,2013-07-17 22:43:00,
2013-07-17 16:11:00,90.0,34.0,-100.00,West,261,9.0,15.0,14,-99.99,,,-99.99,,2013-07-17 23:11:00,
2013-07-17 16:32:00,90.0,34.0,-100.00,West,262,9.0,15.0,14,-99.99,,,-99.99,,2013-07-17 23:32:00,
2013-07-17 16:42:00,89.0,35.0,-100.00,West,265,10.0,15.0,15,-99.99,,,-99.99,,2013-07-17 23:42:00,
2013-07-17 16:52:00,89.0,35.0,-100.00,West,265,10.0,15.0,15,-99.99,,,-99.99,,2013-07-17 23:52:00,
2013-07-17 17:01:00,88.0,33.0,-100.00,West,259,9.0,15.0,14,-99.99,,,-99.99,,2013-07-18 00:01:00,
2013-07-17 17:11:00,88.0,33.0,-100.00,West,261,8.0,15.0,14,-99.99,,,-99.99,,2013-07-18 00:11:00,
2013-07-17 17:21:00,88.0,33.0,-100.00,West,261,8.0,15.0,14,-99.99,,,-99.99,,2013-07-18 00:21:00,
2013-07-17 17:33:00,88.0,31.0,-100.00,WSW,258,8.0,15.0,13,-99.99,,,-99.99,,2013-07-18 00:33:00,
2013-07-17 17:52:00,87.0,32.0,-100.00,West,270,8.0,13.0,14,-99.99,,,-99.99,,2013-07-18 00:52:00,
2013-07-17 18:01:00,87.0,32.0,-100.00,West,271,6.0,12.0,14,-99.99,,,-99.99,,2013-07-18 01:01:00,
2013-07-17 18:11:00,87.0,32.0,-100.00,West,271,6.0,12.0,14,-99.99,,,-99.99,,2013-07-18 01:11:00,
2013-07-17 18:22:00,87.0,32.0,-100.00,West,271,6.0,12.0,14,-99.99,,,-99.99,,2013-07-18 01:22:00,
2013-07-17 18:32:00,85.0,34.0,-100.00,West,261,8.0,14.0,16,-99.99,,,-99.99,,2013-07-18 01:32:00,
2013-07-17 18:42:00,84.0,34.0,-100.00,West,262,8.0,12.0,17,-99.99,,,-99.99,,2013-07-18 01:42:00,
2013-07-17 19:01:00,84.0,34.0,-100.00,West,272,6.0,12.0,17,-99.99,,,-99.99,,2013-07-18 02:01:00,
2013-07-17 19:11:00,84.0,34.0,-100.00,West,272,6.0,12.0,17,-99.99,,,-99.99,,2013-07-18 02:11:00,
2013-07-17 19:32:00,82.0,34.0,-100.00,West,265,7.0,11.0,18,-99.99,,,-99.99,,2013-07-18 02:32:00,
2013-07-17 20:11:00,79.0,36.0,-100.00,West,263,5.0,8.0,21,-99.99,,,-99.99,,2013-07-18 03:11:00,
2013-07-17 20:22:00,77.0,35.0,-100.00,West,259,5.0,9.0,22,-99.99,,,-99.99,,2013-07-18 03:22:00,
2013-07-17 21:12:00,73.0,38.0,-100.00,NW,314,2.0,5.0,28,-99.99,,,-99.99,,2013-07-18 04:12:00,
2013-07-17 21:32:00,72.0,39.0,-100.00,NNE,21,0.0,1.0,30,-99.99,,,-99.99,,2013-07-18 04:32:00,
2013-07-17 21:43:00,68.0,37.0,-100.00,SE,134,2.0,3.0,32,-99.99,,,-99.99,,2013-07-18 04:43:00,
2013-07-17 21:52:00,68.0,37.0,-100.00,SE,134,2.0,3.0,32,-99.99,,,-99.99,,2013-07-18 04:52:00,
2013-07-17 22:01:00,68.0,38.0,-100.00,SE,125,2.0,3.0,33,-99.99,,,-99.99,,2013-07-18 05:01:00,
2013-07-17 22:32:00,67.0,38.0,-100.00,SE,136,2.0,2.0,34,-99.99,,,-99.99,,2013-07-18 05:32:00,
2013-07-17 22:52:00,65.0,37.0,-100.00,SE,131,2.0,4.0,36,-99.99,,,-99.99,,2013-07-18 05:52:00,
2013-07-17 23:01:00,65.0,37.0,-100.00,ESE,114,2.0,2.0,35,-99.99,,,-99.99,,2013-07-18 06:01:00,
2013-07-17 23:22:00,63.0,36.0,-100.00,ESE,119,1.0,2.0,37,-99.99,,,-99.99,,2013-07-18 06:22:00,
2013-07-17 23:32:00,63.0,36.0,-100.00,ESE,119,1.0,2.0,37,-99.99,,,-99.99,,2013-07-18 06:32:00,
2013-07-17 23:43:00,62.0,36.0,-100.00,SSE,151,1.0,2.0,38,-99.99,,,-99.99,,2013-07-18 06:43:00,
2013-07-17 23:52:00,62.0,36.0,-100.00,SSE,151,1.0,2.0,38,-99.99,,,-99.99,,2013-07-18 06:52:00,